Location: Ajisawe
(8.4333°N, 4.3833°E)
Time: 04:52:13
(UTC+00:00)

S-56A Canister/Altair - All Passes

Search period start: 14 April 2021 00:00
Search period end: 24 April 2021 00:00
Orbit: 632 x 2500 km, 38.9° (Epoch: 12 April)

Date Brightness Start Highest point End Pass type
(mag) Time Alt. Az. Time Alt. Az. Time Alt. Az.
14 Apr - 07:31:38 10° NNW 07:37:05 46° NE 07:45:03 10° ESE daylight
14 Apr - 09:35:10 10° WNW 09:41:44 37° SW 09:51:17 10° SSE daylight
14 Apr - 18:23:13 10° S 18:27:51 12° SSE 18:32:04 10° SE visible
14 Apr - 20:24:01 10° SSW 20:35:16 46° SE 20:42:51 10° ENE visible
14 Apr - 22:31:07 10° WSW 22:40:05 43° NW 22:46:10 10° NNE visible
15 Apr - 06:59:31 10° NNW 07:04:27 35° NE 07:11:18 10° ESE daylight
15 Apr - 09:02:30 10° WNW 09:08:44 42° SW 09:17:57 10° SSE daylight
15 Apr - 17:51:26 10° SSE 17:54:15 11° SSE 17:56:56 10° SE daylight
15 Apr - 19:50:35 10° SSW 20:02:05 41° SE 20:10:05 10° ENE visible
15 Apr - 21:57:11 10° WSW 22:07:18 54° NW 22:13:57 10° NE visible
16 Apr - 06:27:29 10° NNW 06:31:51 27° NE 06:37:31 10° E daylight
16 Apr - 08:29:55 10° WNW 08:35:49 49° SW 08:44:39 10° SE daylight
16 Apr - 10:39:47 10° SW 10:42:16 11° SSW 10:44:59 10° SSW daylight
16 Apr - 19:17:10 10° SSW 19:28:47 36° SE 19:37:11 10° E visible
16 Apr - 21:23:17 10° WSW 21:34:26 65° NW 21:41:40 10° NE visible
16 Apr - 23:36:17 10° WNW 23:38:49 12° NW 23:41:05 10° NNW night (unlit)
17 Apr - 05:55:36 10° N 05:59:15 20° NE 06:03:40 10° E daylight
17 Apr - 07:57:24 10° WNW 08:03:00 57° SW 08:11:21 10° SE daylight
17 Apr - 10:05:45 10° SW 10:09:01 12° SSW 10:12:43 10° S daylight
17 Apr - 18:43:49 10° SSW 18:55:26 33° SE 19:04:08 10° E visible
17 Apr - 20:49:24 10° SW 21:01:29 77° NW 21:09:18 10° NE visible
17 Apr - 23:00:58 10° WNW 23:05:57 16° NW 23:10:02 10° N night (unlit)
18 Apr - 05:23:55 10° N 05:26:37 15° NE 05:29:39 10° ENE daylight
18 Apr - 07:24:57 10° WNW 07:30:15 69° SW 07:38:05 10° SE daylight
18 Apr - 09:32:11 10° WSW 09:35:51 14° SSW 09:40:10 10° S daylight
18 Apr - 18:10:32 10° SSW 18:21:59 29° SE 18:30:56 10° E visible
18 Apr - 20:15:34 10° SW 20:28:25 88° NW 20:36:50 10° NE visible
18 Apr - 22:26:12 10° W 22:33:05 21° NW 22:38:21 10° N visible
19 Apr - 04:53:03 10° NNE 04:53:57 10° NE 04:54:53 10° NE visible
19 Apr - 06:52:34 10° NW 06:57:36 85° SW 07:04:50 10° SE daylight
19 Apr - 08:58:53 10° WSW 09:02:46 15° SSW 09:07:29 10° S daylight
19 Apr - 17:37:21 10° SSW 17:48:28 26° SE 17:57:32 10° E daylight
19 Apr - 19:41:48 10° SW 19:55:16 81° SE 20:04:17 10° NE visible
19 Apr - 21:51:39 10° W 22:00:11 27° NW 22:06:26 10° NNE visible
20 Apr - 06:20:14 10° NW 06:25:01 77° NE 06:31:36 10° SE daylight
20 Apr - 08:25:46 10° WSW 08:29:46 17° SSW 08:34:46 10° S daylight
20 Apr - 17:04:19 10° S 17:14:53 23° SE 17:23:53 10° E daylight
20 Apr - 19:08:05 10° SW 19:22:01 72° SE 19:31:37 10° ENE visible
20 Apr - 21:17:12 10° W 21:27:14 33° NW 21:34:21 10° NNE visible
21 Apr - 05:47:56 10° NW 05:52:28 58° NE 05:58:24 10° ESE daylight
21 Apr - 07:52:47 10° W 07:56:51 20° SSW 08:02:01 10° S daylight
21 Apr - 16:31:26 10° S 16:41:15 20° SE 16:49:58 10° ESE daylight
21 Apr - 18:34:26 10° SW 18:48:40 64° SE 18:58:51 10° ENE visible
21 Apr - 20:42:52 10° WSW 20:54:13 41° NW 21:02:08 10° NNE visible
22 Apr - 05:15:41 10° NNW 05:19:58 43° NE 05:25:12 10° ESE daylight
22 Apr - 07:19:54 10° W 07:24:01 22° SW 07:29:16 10° SSE daylight
22 Apr - 15:58:47 10° S 16:07:34 18° SE 16:15:41 10° ESE daylight
22 Apr - 18:00:54 10° SW 18:15:15 57° SE 18:25:58 10° ENE visible
22 Apr - 20:08:37 10° WSW 20:21:07 49° NW 20:29:49 10° NNE visible
22 Apr - 22:24:54 10° NW 22:26:44 11° NNW 22:28:26 10° NNW visible
23 Apr - 04:43:28 10° NNW 04:47:27 32° NE 04:52:00 10° ESE visible
23 Apr - 06:47:08 10° W 06:51:16 26° SW 06:56:31 10° SSE daylight
23 Apr - 15:26:28 10° S 15:33:51 15° SE 15:40:55 10° ESE daylight
23 Apr - 17:27:27 10° SSW 17:41:44 51° SE 17:52:56 10° ENE daylight
23 Apr - 19:34:28 10° WSW 19:47:57 57° NW 19:57:23 10° NE visible
23 Apr - 21:48:33 10° WNW 21:53:37 14° NW 21:57:53 10° N visible
